MB7UEL Weather Reports


Display with metric or nautical units.
time (UTC)temp
F
wind
direction
speed
MPH
gust
MPH
rain 1hr
in
rain 24hr
in
rain mn
in
humidity
%
barometer
mb
20260903163506 62 239 13.0 17.0 0.00 0.18 0.00 1010.0
20260903160506 62 239 13.0 17.0 0.00 0.18 0.00 1009.0
20260903153506 62 243 14.0 18.0 0.00 0.18 0.00 1010.0
20260903150506 62 243 14.0 18.0 0.00 0.18 0.00 1010.0
20260903143506 61 248 17.0 22.0 0.00 0.18 0.00 1010.0
20260903140506 61 248 17.0 22.0 0.00 0.18 0.00 1010.0
20260903133505 62 251 18.0 24.0 0.00 0.18 0.00 1011.0
20260903130506 62 251 18.0 24.0 0.00 0.18 0.00 1011.0
20260903123505 61 255 19.0 25.0 0.00 0.18 0.00 1010.0
20260903120505 62 254 17.0 22.0 0.00 0.18 0.00 1011.0
20260903113505 61 253 19.0 24.0 0.00 0.18 0.00 1011.0
20260903110505 61 253 19.0 24.0 0.00 0.18 0.00 1011.0
20260903103505 60 257 21.0 27.0 0.00 0.18 0.00 1010.0
20260903100505 60 257 21.0 27.0 0.00 0.18 0.00 1010.0
20260903093506 59 258 21.0 28.0 0.00 0.18 0.00 1010.0
20260903090506 59 258 21.0 28.0 0.00 0.03 0.00 1010.0
20260903083506 59 255 22.0 30.0 0.00 0.03 0.00 1010.0
20260903080506 59 255 22.0 30.0 0.00 0.03 0.00 1009.0
20260903073506 59 254 22.0 30.0 0.00 0.03 0.00 1009.0
20260903070506 59 254 22.0 30.0 0.00 0.03 0.00 1009.0
20260903063506 60 253 21.0 29.0 0.00 0.03 0.00 1009.0
20260903060506 60 252 22.0 30.0 0.00 0.03 0.00 1008.0
20260903053505 60 252 21.0 29.0 0.00 0.03 0.00 1008.0
20260903050505 60 252 21.0 29.0 0.00 0.03 0.00 1008.0
20260903043505 60 251 23.0 31.0 0.00 0.03 0.00 1007.0
20260903040505 60 251 23.0 31.0 0.00 0.03 0.00 1007.0
20260903033505 61 249 24.0 32.0 0.00 0.03 0.00 1007.0
20260903030505 61 249 24.0 32.0 0.00 0.03 0.00 1007.0
20260903023506 62 247 22.0 29.0 0.00 0.03 0.00 1007.0
20260903020505 62 247 22.0 29.0 0.00 0.03 0.00 1007.0
20260903013506 62 240 16.0 21.0 0.00 0.03 0.00 1007.0
20260903010506 62 240 16.0 21.0 0.00 0.03 0.00 1007.0
20260903003506 61 240 13.0 16.0 0.00 0.03 0.00 1007.0
20260903000506 62 241 16.0 20.0 0.00 0.00 0.00 1007.0
20260902233506 61 232 11.0 13.0 0.00 0.03 0.00 1008.0
20260902230506 61 232 11.0 13.0 0.00 0.00 0.00 1008.0
20260902223506 61 200 8.0 9.0 0.00 0.03 0.00 1008.0
20260902220506 61 200 8.0 9.0 0.00 0.03 0.00 1008.0
20260902213505 61 156 6.0 8.0 0.00 0.03 0.00 1008.0
20260902210506 61 156 6.0 8.0 0.00 0.03 0.00 1008.0
20260902203505 60 123 9.0 11.0 0.00 0.03 0.00 1009.0
20260902200505 60 123 9.0 11.0 0.00 0.03 0.00 1009.0
20260902193505 61 112 9.0 11.0 0.00 0.03 0.00 1010.0
20260902190505 61 112 9.0 11.0 0.00 0.03 0.00 1010.0
20260902183505 61 119 8.0 10.0 0.00 0.03 0.00 1011.0
20260902180505 60 108 9.0 12.0 0.00 0.03 0.00 1011.0
20260902173506 61 131 7.0 8.0 0.00 0.03 0.00 1011.0
20260902170506 61 131 7.0 8.0 0.00 0.03 0.00 1011.0